Skagway, AK

11:55 PM AKST on December 13, 2017 (GMT -0900)
Skagway

Weather History for PAGY - October, 2011

Change the Weather History Date:

Thursday, October 20, 2011

  Actual Average Record
Temperature  
Mean Temperature 44 °F -  
Max Temperature 45 °F 44 °F 55 °F (2002)
Min Temperature 41 °F 35 °F 26 °F (1971)
Degree Days  
Heating Degree Days 22    
Moisture  
Dew Point 36 °F    
Average Humidity 76    
Maximum Humidity 86    
Minimum Humidity 68    
Precipitation  
Precipitation 0.00 in - - ()
Sea Level Pressure  
Sea Level Pressure 29.91 in    
Wind  
Wind Speed 12 mph (SSW)    
Max Wind Speed 23 mph    
Max Gust Speed 29 mph    
Visibility 10 miles    
Events Rain    
Averages and records for this station are not official NWS values.
T = Trace of Precipitation, MM = Missing Value Source: NWS Daily Summary

Daily Weather History Graph

Daily Weather History Graph

Search for Another Location

Airport or City:

Trip Planner

Search our weather history database for the weather conditions in past years. The results will help you decide how hot, cold, wet, or windy it might be!

Date:

Astronomy

Oct. 20, 2011 Rise Set
Actual Time 7:51 AM AKDT 5:39 PM AKDT
Civil Twilight 7:09 AM AKDT 6:21 PM AKDT
Nautical Twilight 6:21 AM AKDT 7:09 PM AKDT
Astronomical Twilight 5:34 AM AKDT 7:56 PM AKDT
Moon No Moon Rise 3:23 PM AKDT (10/20)
Length of Visible Light 11h 12m
Length of Day
9h 48m
Last Quarter, 43% of the Moon is Illuminated
Oct 20
Last Quarter
Oct 26
New
Nov 2
First Quarter
Nov 10
Full
Nov 18
Last Quarter

Hourly Weather History & Observations

Time (AKDT) Temp. Windchill Dew Point Humidity Pressure Visibility Wind Dir Wind Speed Gust Speed Precip Events Conditions
12:53 AM 43.0 °F 36.4 °F 36.0 °F 76% 29.90 in 10.0 mi SSW 12.7 mph 18.4 mph N/A   Overcast
1:53 AM 43.0 °F 37.7 °F 36.0 °F 76% 29.91 in 10.0 mi South 9.2 mph 19.6 mph N/A   Overcast
2:53 AM 42.1 °F 36.1 °F 36.0 °F 79% 29.91 in 10.0 mi South 10.4 mph 19.6 mph N/A   Overcast
3:53 AM 43.0 °F 36.8 °F 36.0 °F 76% 29.91 in 10.0 mi South 11.5 mph 20.7 mph N/A   Mostly Cloudy
4:53 AM 43.0 °F 36.4 °F 36.0 °F 76% 29.91 in 10.0 mi SSW 12.7 mph - N/A   Overcast
5:53 AM 43.0 °F 37.2 °F 37.0 °F 80% 29.91 in 10.0 mi SSW 10.4 mph 18.4 mph N/A   Mostly Cloudy
6:53 AM 44.1 °F 37.7 °F 36.0 °F 73% 29.91 in 10.0 mi SSW 12.7 mph - N/A   Overcast
7:53 AM 42.8 °F 40.1 °F 35.6 °F 76% 29.92 in 10.0 mi SW 4.6 mph - N/A   Overcast
8:53 AM 43.0 °F 38.2 °F 36.0 °F 76% 29.92 in 10.0 mi South 8.1 mph - N/A   Overcast
9:53 AM 44.1 °F 37.7 °F 36.0 °F 73% 29.92 in 10.0 mi SSW 12.7 mph - N/A   Overcast
10:53 AM 44.1 °F 38.6 °F 36.0 °F 73% 29.93 in 10.0 mi SSW 10.4 mph - N/A   Overcast
11:53 AM 44.1 °F 36.8 °F 36.0 °F 73% 29.92 in 10.0 mi SSW 16.1 mph - N/A   Overcast
12:53 PM 43.0 °F 33.8 °F 36.0 °F 76% 29.92 in 10.0 mi SSW 23.0 mph 28.8 mph N/A   Mostly Cloudy
1:53 PM 43.0 °F 35.1 °F 37.9 °F 82% 29.93 in 10.0 mi SSW 17.3 mph - 0.00 in Rain Light Rain
2:53 PM 44.1 °F 37.1 °F 37.9 °F 79% 29.92 in 10.0 mi SSW 15.0 mph 23.0 mph 0.00 in   Mostly Cloudy
3:53 PM 44.6 °F 36.6 °F 37.4 °F 76% 29.90 in 10.0 mi SSW 19.6 mph 26.5 mph N/A   Overcast
4:53 PM 45.0 °F 38.9 °F 37.0 °F 74% 29.91 in 10.0 mi SSW 12.7 mph 21.9 mph N/A   Overcast
5:53 PM 45.0 °F 39.3 °F 36.0 °F 71% 29.90 in 10.0 mi South 11.5 mph - N/A   Overcast
6:53 PM 44.1 °F 36.5 °F 37.0 °F 76% 29.90 in 10.0 mi SSW 17.3 mph 23.0 mph N/A   Overcast
7:53 PM 44.1 °F 37.1 °F 37.0 °F 76% 29.90 in 10.0 mi SSW 15.0 mph 21.9 mph N/A   Overcast
8:53 PM 45.0 °F 38.9 °F 35.1 °F 68% 29.89 in 10.0 mi South 12.7 mph 19.6 mph N/A   Partly Cloudy
9:53 PM 43.0 °F 40.3 °F 36.0 °F 76% 29.89 in 10.0 mi Variable 4.6 mph - N/A   Overcast
10:53 PM 42.1 °F 37.7 °F 36.0 °F 79% 29.88 in 10.0 mi NE 6.9 mph - N/A   Overcast
11:53 PM 41.0 °F - 37.0 °F 86% 29.86 in 10.0 mi Calm Calm - N/A   Overcast